Location: Knobs
(40.8333°S, 175.2333°E)
Time: 01:39:07
(UTC+00:00)

USA 59 Rocket - Pass Details

Date: 12 June 2024
Orbit: 382 x 1740 km, 63.3° (Epoch: 22 July)

Event Time Altitude Azimuth Distance (km) Brightness Sun altitude
Exits shadow 15:14:10 21° 165° (SSE) 3,081 3.6 -49.5°
Drops below altitude 10° 15:20:15 10° 123° (ESE) 3,575 4.4 -48.3°
Sets 15:23:58 0° 107° (ESE) 4,327 5.1 -47.6°
